Temp
-7 -7 -7 -7 -7 -7 -7 -5 -7 -5 -4 -4 -4 -5 -5 -6 -6 -6 -6 -6 -6 -6 -6 -7 -7 -7 -7 -7 -7 -7 -7 -7
-7 -7 -7 -7 -7 -7 -7 -6 -6 -5 -4 -5 -4 -5 -5 -5 -5 -6 -6 -6 -6 -6 -6 -6 -6 -7 -7 -7 -7 -7 -6 -6
-7 -6 -7 -7 -7 -7 -7 -6 -6 -6 -6 -4 -4 -4 -5 -5 -5 -6 -6 -6 -6 -6 -6 -6 -6 -6 -6 -6 -6 -6 -6 -6
-7 -7 -7 -7 -7 -7 -7 -6 -6 -6 -5 -4 -4 -4 -5 -5 -5 -5 -6 -6 -5 -5 -6 -6 -6 -6 -6 -6 -6 -5 -6 -6
-8 -7 -7 -7 -6 -7 -7 -6 -5 -6 -4 -4 -4 -4 -5 -5 -5 -5 -5 -6 -6 -6 -6 -6 -6 -6 -5 -5 -5 -5 -5 -6
-7 -7 -7 -7 -6 -6 -7 -7 -6 -6 -4 -4 -4 -4 -5 -5 -5 -5 -5 -5 -6 -6 -6 -5 -5 -5 -5 -5 -5 -6 -6 -6
-8 -7 -7 -7 -7 -7 -6 -7 -6 -6 -5 -4 -4 -5 -5 -5 -5 -5 -5 -5 -6 -6 -6 -5 -5 -5 -5 -6 -6 -6 -6 -6
-8 -8 -7 -8 -7 -7 -6 -5 -6 -6 -7 -5 -5 -5 -5 -5 -5 -5 -5 -5 -6 -6 -6 -6 -6 -6 -6 -6 -6 -6 -6 -6
-7 -7 -7 -7 -7 -7 -6 -5 -6 -6 -6 -5 -4 -5 -5 -5 -5 -5 -5 -6 -6 -6 -6 -6 -6 -6 -6 -6 -6 -6 -6 -6
-7 -7 -7 -6 -7 -6 -6 -6 -6 -6 -6 -5 -5 -5 -5 -6 -5 -5 -6 -6 -6 -6 -6 -6 -6 -6 -6 -6 -6 -6 -6 -6
-7 -7 -7 -6 -7 -7 -6 -6 -6 -6 -6 -6 -6 -5 -5 -6 -5 -5 -5 -6 -6 -6 -6 -6 -6 -6 -6 -6 -6 -6 -6 -6
-7 -8 -7 -6 -6 -6 -7 -6 -6 -6 -6 -6 -6 -6 -6 -5 -6 -5 -6 -6 -6 -6 -6 -6 -6 -6 -6 -6 -5 -5 -5 -6
-7 -7 -7 -7 -5 -7 -7 -6 -6 -6 -6 -5 -5 -6 -6 -6 -6 -6 -6 -6 -6 -6 -6 -6 -6 -6 -5 -5 -5 -5 -5 -5
-7 -7 -6 -7 -6 -7 -6 -7 -7 -6 -6 -6 -6 -6 -6 -6 -6 -6 -6 -6 -6 -6 -6 -6 -5 -5 -5 -5 -5 -5 -5 -5
-5 -5 -6 -6 -6 -7 -7 -7 -7 -7 -6 -6 -6 -6 -6 -6 -6 -6 -6 -6 -6 -6 -6 -6 -5 -5 -5 -5 -5 -5 -5 -6
-7 -6 -6 -6 -6 -6 -7 -8 -7 -8 -6 -6 -6 -6 -6 -6 -6 -6 -7 -7 -6 -6 -6 -6 -5 -5 -5 -5 -5 -5 -6 -6
-7 -6 -6 -7 -6 -6 -6 -6 -6 -7 -6 -6 -6 -6 -6 -6 -6 -6 -7 -7 -7 -6 -7 -6 -6 -6 -6 -6 -6 -6 -6 -6
-6 -5 -5 -6 -6 -6 -6 -6 -6 -6 -6 -6 -6 -6 -6 -6 -7 -7 -7 -7 -7 -7 -7 -6 -7 -7 -6 -6 -7 -7 -7 -7
-7 -6 -6 -6 -7 -7 -6 -6 -6 -6 -6 -6 -6 -6 -6 -6 -7 -7 -7 -8 -8 -8 -7 -7 -8 -7 -7 -7 -7 -7 -7 -7
Height
5912 5914 5918 5920 5921 5923 5926 5927 5930 5930 5931 5932 5932 5933 5933 5932 5934 5936 5935 5935 5935 5936 5936 5936 5936 5936 5936 5936 5936 5936 5935 5935
5909 5912 5915 5918 5920 5924 5924 5928 5933 5931 5931 5932 5933 5934 5934 5934 5935 5938 5937 5937 5938 5939 5939 5939 5939 5939 5939 5938 5938 5937 5937 5936
5907 5910 5915 5917 5918 5921 5924 5926 5932 5933 5933 5932 5934 5934 5935 5936 5937 5940 5939 5939 5940 5941 5940 5940 5940 5940 5940 5940 5940 5939 5938 5937
5905 5906 5911 5915 5918 5920 5924 5927 5926 5933 5931 5931 5934 5935 5935 5938 5939 5941 5940 5940 5941 5941 5942 5942 5942 5942 5942 5942 5941 5941 5940 5938
5898 5904 5907 5911 5914 5918 5923 5923 5926 5933 5930 5931 5934 5936 5936 5939 5941 5942 5942 5941 5942 5943 5943 5944 5943 5943 5943 5943 5943 5942 5941 5939
5898 5904 5909 5910 5913 5915 5918 5924 5928 5930 5927 5930 5934 5935 5937 5940 5941 5943 5943 5942 5943 5944 5944 5945 5945 5944 5944 5944 5943 5942 5941 5939
5893 5899 5903 5907 5911 5912 5915 5919 5927 5929 5927 5929 5933 5934 5937 5939 5941 5943 5942 5942 5943 5944 5945 5945 5945 5945 5945 5944 5943 5942 5940 5938
5884 5890 5895 5901 5906 5911 5913 5915 5919 5926 5927 5928 5931 5933 5936 5939 5941 5941 5942 5943 5944 5944 5945 5945 5945 5945 5945 5944 5943 5941 5939 5936
5877 5886 5891 5894 5900 5906 5911 5914 5918 5924 5927 5927 5929 5933 5935 5938 5939 5940 5941 5942 5943 5943 5944 5945 5945 5944 5944 5943 5941 5939 5936 5934
5872 5881 5879 5890 5898 5905 5909 5912 5916 5921 5925 5927 5929 5932 5934 5936 5937 5939 5939 5940 5941 5942 5943 5943 5943 5943 5942 5941 5939 5936 5934 5932
5862 5869 5880 5886 5891 5897 5902 5908 5912 5916 5920 5924 5927 5930 5932 5935 5936 5938 5938 5939 5940 5941 5942 5942 5942 5941 5939 5938 5936 5934 5932 5930
5858 5861 5866 5881 5889 5895 5901 5905 5910 5913 5917 5921 5925 5928 5932 5934 5935 5936 5937 5938 5938 5939 5940 5939 5939 5938 5936 5934 5932 5931 5929 5928
5848 5853 5864 5875 5885 5889 5889 5904 5907 5912 5915 5918 5922 5929 5930 5932 5933 5933 5934 5935 5936 5937 5937 5937 5936 5935 5933 5932 5930 5929 5927 5925
5838 5845 5855 5869 5877 5880 5892 5897 5904 5910 5914 5918 5921 5924 5928 5929 5930 5931 5932 5933 5934 5934 5934 5934 5933 5932 5931 5929 5928 5926 5924 5922
5832 5841 5852 5863 5870 5879 5888 5892 5896 5905 5911 5914 5918 5922 5925 5927 5928 5929 5930 5930 5930 5931 5931 5930 5930 5929 5928 5927 5926 5924 5922 5919
5824 5833 5846 5856 5863 5874 5882 5886 5895 5898 5906 5910 5914 5917 5920 5924 5925 5927 5927 5927 5927 5927 5927 5927 5927 5926 5925 5924 5923 5921 5918 5915
5814 5825 5837 5847 5856 5870 5877 5884 5888 5896 5902 5906 5909 5913 5917 5920 5922 5923 5924 5924 5925 5924 5923 5924 5923 5923 5923 5922 5920 5918 5914 5911
5808 5822 5831 5840 5852 5862 5869 5878 5885 5891 5896 5901 5905 5909 5914 5915 5917 5919 5920 5921 5921 5920 5920 5920 5921 5921 5920 5918 5916 5913 5909 5905
5802 5812 5820 5834 5845 5854 5864 5872 5878 5885 5890 5895 5901 5905 5908 5911 5913 5915 5916 5917 5917 5917 5917 5918 5917 5917 5916 5914 5911 5907 5902 5897
Wind_Speed
23 19 17 12 11 11 10 10 6 6 8 7 10 12 12 15 13 10 13 14 15 14 14 14 14 14 13 13 13 11 9 8
25 22 19 17 13 9 11 9 7 6 9 10 10 11 12 13 15 13 16 16 17 17 17 16 15 14 13 12 11 10 10 8
27 24 20 17 14 16 14 15 7 5 7 11 11 12 11 11 15 14 17 17 17 16 15 14 13 12 11 11 11 11 9 8
30 30 23 20 15 14 11 7 14 10 10 10 11 12 12 12 14 14 15 16 15 14 13 11 10 9 9 9 10 11 11 10
32 32 27 25 22 17 14 15 12 7 13 13 12 12 12 13 15 15 16 16 14 12 10 9 8 7 7 7 8 9 10 11
28 28 23 28 26 24 19 11 10 11 16 13 12 14 13 15 17 16 16 16 13 10 8 7 6 4 3 3 4 6 9 12
29 26 29 30 25 24 25 19 13 12 15 14 12 12 15 15 17 16 13 12 9 7 6 5 3 1 1 3 6 8 11 14
38 33 36 26 26 25 25 24 21 17 14 16 16 16 15 16 14 13 13 11 8 6 4 2 1 2 3 5 8 11 14 17
48 42 36 38 34 29 26 26 24 17 16 14 16 15 15 14 14 13 11 9 7 7 4 3 3 3 4 7 10 13 15 15
51 41 45 39 31 29 29 30 29 24 19 14 11 16 13 14 15 14 13 10 8 7 4 4 4 5 7 10 13 14 13 12
58 49 42 40 36 34 36 34 35 31 26 21 21 17 12 15 16 15 13 11 8 6 4 3 5 7 9 12 10 9 9 9
57 51 49 40 36 31 31 35 36 35 31 27 24 20 12 13 16 16 14 11 8 5 3 4 7 8 9 8 7 8 9 10
60 59 52 42 37 37 46 36 36 33 35 32 26 18 17 15 18 17 15 12 9 6 4 6 8 8 8 9 9 11 12 13
56 60 57 47 44 43 39 36 33 31 33 30 29 24 20 19 20 16 14 11 7 5 5 6 5 7 8 9 10 12 14 18
50 50 51 50 47 42 40 45 36 30 28 25 25 28 27 22 19 16 12 9 8 6 5 3 4 7 8 10 12 14 16 19
53 51 49 48 48 44 42 34 29 31 30 27 26 29 32 28 21 18 11 6 6 7 4 3 5 7 8 10 13 16 17 20
55 51 47 50 47 42 45 38 36 38 31 28 26 27 27 27 23 19 11 8 6 5 4 3 3 7 9 13 15 17 17 20
53 46 45 46 43 39 43 37 29 29 36 30 24 23 18 23 21 17 12 8 6 5 5 5 5 6 12 13 12 17 21 26
48 47 49 42 45 43 38 41 31 29 37 36 32 28 19 21 20 16 11 9 7 8 6 4 7 9 11 13 18 21 29 31
Wind_Direction
189 179 172 172 157 179 171 169 159 176 168 175 167 163 151 136 130 134 120 113 111 109 106 104 103 101 98 101 103 105 101 97
194 187 183 176 180 165 163 176 168 199 176 202 182 170 156 144 136 145 129 123 123 121 116 111 105 100 97 91 84 81 81 88
199 202 191 188 169 169 178 160 193 187 207 196 187 172 151 147 141 152 137 133 127 120 109 97 89 84 75 66 63 64 57 45
202 203 193 186 181 184 164 223 173 169 212 204 195 174 152 163 156 160 142 132 122 116 109 103 97 87 74 64 56 49 40 30
212 197 194 185 189 191 195 204 188 166 204 196 201 187 171 173 174 170 154 136 130 124 117 108 101 94 81 64 50 40 30 18
213 209 210 197 192 192 189 191 199 164 210 194 201 190 189 191 183 176 157 142 135 127 118 113 102 94 85 55 29 13 7 0
200 208 205 204 202 195 187 184 194 209 212 196 201 189 197 200 194 181 159 140 139 142 134 129 128 145 293 319 331 335 340 345
211 210 204 203 206 197 190 188 177 179 198 214 204 199 206 199 197 180 163 155 159 167 163 147 240 266 290 304 318 328 334 336
211 209 212 211 199 203 190 186 179 176 188 208 204 210 218 205 192 182 162 164 168 176 187 223 249 281 307 310 316 321 323 328
210 208 218 206 200 202 192 182 183 179 200 180 187 207 201 205 194 186 172 171 169 176 206 239 266 291 312 312 311 314 321 329
211 210 218 204 204 203 194 189 190 197 200 202 195 207 199 206 201 198 179 176 180 186 208 248 281 296 305 309 313 319 325 334
211 213 217 208 201 199 202 192 198 206 201 205 202 213 213 218 205 198 185 183 183 195 208 271 286 295 304 313 330 335 338 334
216 219 218 216 202 208 205 189 196 204 202 208 214 205 220 231 214 197 191 187 193 202 234 277 291 313 325 343 346 339 334 333
215 219 218 214 211 209 197 190 187 192 204 217 221 219 223 225 208 194 190 186 197 217 244 271 304 328 343 337 335 336 337 337
216 217 216 214 215 199 200 200 188 192 195 206 221 226 228 232 216 197 183 186 203 221 245 278 320 331 329 329 334 337 340 340
219 219 216 218 217 200 199 208 202 198 207 212 223 225 227 235 228 213 178 166 201 220 238 292 326 327 338 341 343 340 339 340
218 216 213 217 220 204 206 203 209 206 211 211 224 218 228 240 233 203 197 222 250 244 268 250 335 339 348 350 343 339 338 335
217 211 210 209 210 206 209 204 200 210 215 204 202 211 226 233 200 205 210 244 242 271 278 242 286 324 343 335 333 327 329 328
217 212 213 209 206 210 207 204 201 207 202 202 205 206 212 215 202 208 232 252 274 306 284 282 286 319 347 347 335 337 344 340